Location: Buckeye Ditch
(40.9104°N, 122.9517°W)
Time: 00:33:20
(UTC+00:00)

SR - Pass Details

Date: 25 May 2025
Orbit: 570 x 855 km, 66.7° (Epoch: 11 June)

Event Time Altitude Azimuth Distance (km) Brightness Sun altitude
Exits shadow 06:58:54 74° 172° (S) 891 ? -26.0°
Maximum altitude 06:59:22 80° 118° (ESE) 871 ? -26.0°
Drops below altitude 10° 07:05:10 10° 32° (NNE) 2,478 ? -26.3°
Sets 07:07:37 0° 31° (NNE) 3,399 ? -26.5°
